GW0338 Weather Reports


time (UTC)temp
F
wind
direction
speed
knots
gust
knots
rain 1hr
in
rain 24hr
in
rain mn
in
humidity
%
barometer
mb
20260507140549 61 0 1.7 7.8 0.00 0.00 0.00 86 1017.0
20260507140051 61 293 3.5 7.8 0.00 0.00 0.00 86 1016.8
20260507135548 61 287 2.6 6.1 0.00 0.00 0.00 86 1016.8
20260507135047 61 298 2.6 6.1 0.00 0.00 0.00 86 1016.8
20260507134552 61 292 1.7 4.3 0.00 0.00 0.00 86 1016.8
20260507134046 61 294 0.9 4.3 0.00 0.00 0.00 86 1016.8
20260507133547 61 0 0.0 4.3 0.00 0.00 0.00 86 1016.7
20260507133053 61 310 0.0 4.3 0.00 0.00 0.00 86 1016.7
20260507132547 61 336 1.7 4.3 0.00 0.00 0.00 86 1016.7
20260507132046 61 309 0.9 3.5 0.00 0.00 0.00 87 1016.6
20260507131600 61 295 0.9 5.2 0.00 0.00 0.00 87 1016.6
20260507131049 61 0 0.9 6.1 0.00 0.00 0.00 87 1016.7
20260507130547 61 0 1.7 6.1 0.00 0.00 0.00 87 1016.6
20260507130058 61 293 0.9 3.5 0.00 0.00 0.00 87 1016.6
20260507125547 61 292 1.7 6.1 0.00 0.00 0.00 87 1016.6
20260507125048 61 290 1.7 6.1 0.00 0.00 0.00 87 1016.5
20260507124602 61 311 0.9 3.5 0.00 0.00 0.00 87 1016.5
20260507124048 61 312 0.9 3.5 0.00 0.00 0.00 87 1016.5
20260507123548 60 310 0.0 3.5 0.00 0.00 0.00 87 1016.4
20260507123053 60 309 0.9 3.5 0.00 0.00 0.00 87 1016.5
20260507122547 60 345 0.9 3.5 0.00 0.00 0.00 87 1016.3
20260507122047 60 304 0.9 3.5 0.00 0.00 0.00 87 1016.3
20260507121553 60 0 0.0 3.5 0.00 0.00 0.00 87 1016.3
20260507121047 60 303 0.9 3.5 0.00 0.00 0.00 87 1016.3
20260507120547 60 306 1.7 3.5 0.00 0.00 0.00 87 1016.4
20260507120054 61 294 1.7 4.3 0.00 0.00 0.00 87 1016.4
20260507115547 61 290 1.7 6.1 0.00 0.00 0.00 87 1016.3
20260507115046 60 286 1.7 6.1 0.00 0.00 0.00 87 1016.4
20260507114605 60 307 2.6 6.1 0.00 0.00 0.00 87 1016.2
20260507114049 61 296 1.7 4.3 0.00 0.00 0.00 87 1016.2
20260507113546 60 295 1.7 3.5 0.00 0.00 0.00 87 1016.3
20260507113125 60 0 0.9 3.5 0.00 0.00 0.00 87 1016.2
20260507112547 60 320 0.9 3.5 0.00 0.00 0.00 87 1016.2
20260507112047 60 317 0.9 3.5 0.00 0.00 0.00 87 1016.4
20260507111553 61 317 0.9 4.3 0.00 0.00 0.00 87 1016.4
20260507111047 61 0 1.7 4.3 0.00 0.00 0.00 87 1016.4
20260507110548 61 307 1.7 5.2 0.00 0.00 0.00 87 1016.5
20260507110052 61 316 1.7 5.2 0.00 0.00 0.00 87 1016.4
20260507105547 61 307 0.9 6.1 0.00 0.00 0.00 87 1016.4
20260507105048 61 288 1.7 6.1 0.00 0.00 0.00 87 1016.4
20260507104552 61 297 1.7 4.3 0.00 0.00 0.00 87 1016.4
20260507104048 61 306 0.9 2.6 0.00 0.00 0.00 87 1016.6
20260507103550 61 309 0.9 5.2 0.00 0.00 0.00 87 1016.7
20260507103053 61 0 0.0 5.2 0.00 0.00 0.00 87 1016.7
20260507102548 61 310 0.9 7.0 0.00 0.00 0.00 87 1016.6
20260507102048 61 290 1.7 7.0 0.00 0.00 0.00 86 1016.7
20260507101550 61 302 1.7 7.0 0.00 0.00 0.00 87 1016.7
20260507101047 61 293 2.6 7.0 0.00 0.00 0.00 87 1016.8
20260507100548 61 296 2.6 6.1 0.00 0.00 0.00 88 1016.8
20260507100056 61 300 0.9 4.3 0.00 0.00 0.00 87 1016.8
20260507095548 61 301 1.7 3.5 0.00 0.00 0.00 88 1016.8
20260507095049 61 308 1.7 3.5 0.00 0.00 0.00 88 1016.8
20260507094602 61 307 1.7 3.5 0.00 0.00 0.00 88 1016.8
20260507094052 61 298 0.9 2.6 0.00 0.00 0.00 88 1016.9
20260507093548 61 296 0.9 2.6 0.00 0.00 0.00 88 1017.0
20260507093055 61 0 0.0 4.3 0.00 0.00 0.00 88 1017.1
20260507092548 61 294 1.7 6.1 0.00 0.00 0.00 88 1017.1
20260507092048 61 295 2.6 6.1 0.00 0.00 0.00 88 1017.0
20260507091635 61 298 1.7 5.2 0.00 0.00 0.00 88 1017.1
20260507091049 61 290 1.7 4.3 0.00 0.00 0.00 89 1017.1
20260507090548 61 295 1.7 4.3 0.00 0.00 0.00 88 1017.2
20260507090053 61 303 1.7 3.5 0.00 0.00 0.00 88 1017.2
20260507085549 61 291 0.9 2.6 0.00 0.00 0.00 88 1017.3
20260507085048 61 0 0.0 1.7 0.00 0.00 0.00 88 1017.3
20260507084604 61 0 0.0 1.7 0.00 0.00 0.00 88 1017.4
20260507084047 61 0 0.0 3.5 0.00 0.00 0.00 88 1017.5
20260507083551 61 291 0.9 3.5 0.00 0.00 0.00 88 1017.5
20260507083053 61 290 0.0 3.5 0.00 0.00 0.00 88 1017.6
20260507082548 61 290 0.9 3.5 0.00 0.00 0.00 88 1017.6
20260507082048 61 300 0.0 3.5 0.00 0.00 0.00 88 1017.7
20260507081558 61 300 0.9 3.5 0.00 0.00 0.00 88 1017.8
20260507081050 61 301 0.9 3.5 0.00 0.00 0.00 88 1017.8
20260507080549 61 0 0.0 2.6 0.00 0.00 0.00 88 1017.8
20260507080055 61 300 0.9 2.6 0.00 0.00 0.00 88 1017.8
20260507075552 61 300 0.0 2.6 0.00 0.00 0.00 88 1017.8
20260507075048 61 0 0.9 2.6 0.00 0.00 0.00 88 1017.8
20260507074558 61 298 0.0 3.5 0.00 0.00 0.00 88 1017.9
20260507074054 61 298 1.7 3.5 0.00 0.00 0.00 88 1017.9
20260507073548 61 298 0.9 3.5 0.00 0.00 0.00 88 1017.8
20260507073057 61 0 0.9 2.6 0.00 0.00 0.00 88 1017.8
20260507072548 61 304 0.0 3.5 0.00 0.00 0.00 88 1017.8
20260507072050 61 304 0.9 3.5 0.00 0.00 0.00 88 1017.9
20260507071550 61 301 0.9 2.6 0.00 0.00 0.00 88 1017.8
20260507071048 61 301 0.0 2.6 0.00 0.00 0.00 88 1018.0
20260507070548 61 0 0.9 2.6 0.00 0.00 0.00 88 1017.9
20260507070054 61 301 0.0 2.6 0.00 0.00 0.00 88 1018.0
20260507065547 61 301 0.9 2.6 0.00 0.00 0.00 88 1018.0
20260507065049 61 0 0.9 2.6 0.00 0.00 0.00 88 1018.0
20260507064554 61 0 0.9 2.6 0.00 0.00 0.00 88 1018.1
20260507064048 61 300 0.9 2.6 0.00 0.00 0.00 87 1018.1
20260507063549 62 294 0.9 3.5 0.00 0.00 0.00 87 1018.1
20260507063056 62 294 0.9 3.5 0.00 0.00 0.00 87 1018.1
20260507062548 62 294 0.0 3.5 0.00 0.00 0.00 87 1018.1
20260507062048 62 292 1.7 3.5 0.00 0.00 0.00 87 1018.2
20260507061552 62 292 1.7 5.2 0.00 0.00 0.00 87 1018.2
20260507061052 62 292 0.9 5.2 0.00 0.00 0.00 87 1018.2
20260507060550 62 286 2.6 5.2 0.00 0.00 0.00 87 1018.1
20260507060059 62 288 0.0 5.2 0.00 0.00 0.00 87 1018.2
20260507055548 62 287 1.7 3.5 0.00 0.00 0.00 87 1018.1
20260507055048 62 298 1.7 3.5 0.00 0.00 0.00 87 1018.2
20260507054554 62 0 0.9 3.5 0.00 0.00 0.00 87 1018.2
20260507054052 62 319 1.7 6.1 0.00 0.00 0.00 87 1018.2
20260507053548 62 298 1.7 7.0 0.00 0.00 0.00 87 1018.1
20260507053052 62 284 3.5 7.0 0.00 0.00 0.00 87 1018.2
20260507052548 62 292 2.6 4.3 0.00 0.00 0.00 87 1018.2
20260507052047 62 316 1.7 6.1 0.00 0.00 0.00 87 1018.2
20260507051552 62 0 2.6 6.1 0.00 0.00 0.00 87 1018.2
20260507051050 62 298 1.7 6.1 0.00 0.00 0.00 87 1018.2
20260507050550 62 309 2.6 6.1 0.00 0.00 0.00 87 1018.1
20260507050058 62 288 1.7 7.0 0.00 0.00 0.00 87 1018.1
20260507045548 62 310 2.6 7.0 0.00 0.00 0.00 87 1018.0
20260507045048 62 290 2.6 7.8 0.00 0.00 0.00 87 1018.0
20260507044606 62 316 2.6 7.8 0.00 0.00 0.00 87 1018.0
20260507044048 62 301 5.2 8.7 0.00 0.00 0.00 87 1018.0
20260507043548 62 292 3.5 8.7 0.00 0.00 0.00 87 1018.0
20260507043104 62 296 3.5 8.7 0.00 0.00 0.00 87 1018.0
20260507042547 62 300 3.5 7.0 0.00 0.00 0.00 87 1018.0
20260507042050 62 310 3.5 7.0 0.00 0.00 0.00 87 1017.9
20260507041557 62 296 3.5 7.0 0.00 0.00 0.00 87 1017.9
20260507041048 62 294 3.5 7.0 0.00 0.00 0.00 87 1017.9
20260507040551 62 314 4.3 7.8 0.00 0.00 0.00 87 1017.9
20260507040058 62 293 4.3 8.7 0.00 0.00 0.00 87 1017.9
20260507035550 62 295 5.2 8.7 0.00 0.00 0.00 87 1017.7
20260507035050 62 332 5.2 8.7 0.00 0.00 0.00 87 1017.6
20260507034554 62 291 4.3 8.7 0.00 0.00 0.00 87 1017.7
20260507034048 62 296 5.2 8.7 0.00 0.00 0.00 87 1017.7
20260507033548 62 302 4.3 7.8 0.00 0.00 0.00 87 1017.6
20260507033056 62 300 3.5 8.7 0.00 0.00 0.00 86 1017.5
20260507032552 62 290 5.2 8.7 0.00 0.00 0.00 86 1017.6
20260507032047 62 294 5.2 9.6 0.00 0.00 0.00 86 1017.5
20260507031558 62 329 4.3 9.6 0.00 0.00 0.00 86 1017.4
20260507031048 62 305 5.2 9.6 0.00 0.00 0.00 86 1017.3
20260507030551 62 327 5.2 8.7 0.00 0.00 0.00 86 1017.3
20260507030052 62 296 5.2 9.6 0.00 0.00 0.00 87 1017.3
20260507025550 62 311 6.1 9.6 0.00 0.00 0.00 86 1017.2
20260507025050 62 297 6.1 9.6 0.00 0.00 0.00 87 1017.2
20260507024556 62 286 4.3 10.4 0.00 0.00 0.00 87 1017.1
20260507024048 62 313 6.1 10.4 0.00 0.00 0.00 87 1017.0
20260507023548 62 282 6.1 10.4 0.00 0.00 0.00 86 1017.0
20260507023104 62 297 7.0 10.4 0.00 0.00 0.00 87 1017.1
20260507022549 62 304 7.8 10.4 0.00 0.00 0.00 87 1017.1
20260507022048 63 287 7.0 10.4 0.00 0.00 0.00 87 1017.1
20260507021557 62 291 7.0 10.4 0.00 0.00 0.00 86 1017.1
20260507021047 62 302 7.0 10.4 0.00 0.00 0.00 86 1017.0
20260507020548 63 288 6.1 11.3 0.00 0.00 0.00 86 1017.0
20260507015547 63 302 7.8 11.3 0.00 0.00 0.00 86 1016.9
20260507015048 63 294 7.0 11.3 0.00 0.00 0.00 86 1017.0
20260507014557 63 284 7.8 11.3 0.00 0.00 0.00 86 1016.8
20260507014047 63 333 7.0 10.4 0.00 0.00 0.00 86 1016.9
20260507013548 63 292 7.8 10.4 0.00 0.00 0.00 86 1016.9
20260507013051 63 292 7.0 10.4 0.00 0.00 0.00 86 1016.9
20260507012549 63 306 7.8 11.3 0.00 0.00 0.00 86 1016.9
20260507012048 63 293 7.8 11.3 0.00 0.00 0.00 85 1016.8
20260507011552 63 306 7.0 10.4 0.00 0.00 0.00 85 1016.9
20260507011047 63 297 7.0 10.4 0.00 0.00 0.00 85 1016.9
20260507010549 63 298 7.8 10.4 0.00 0.00 0.00 85 1016.9
20260507010054 63 299 7.8 9.6 0.00 0.00 0.00 85 1016.9
20260507005548 63 300 7.8 10.4 0.00 0.00 0.00 85 1017.0
20260507005049 63 298 7.8 10.4 0.00 0.00 0.00 85 1016.8
20260507004551 63 292 7.8 11.3 0.00 0.00 0.00 84 1016.8
20260507004047 63 298 7.8 11.3 0.00 0.00 0.00 85 1016.9
20260507003548 63 284 7.8 11.3 0.00 0.00 0.00 84 1016.8
20260507003114 63 295 7.8 10.4 0.00 0.00 0.00 84 1016.8
20260507002548 63 304 7.8 10.4 0.00 0.00 0.00 84 1016.8
20260507002048 63 295 7.8 11.3 0.00 0.00 0.00 84 1016.7
20260507001611 63 298 8.7 12.2 0.00 0.00 0.00 83 1016.7
20260507001046 63 296 8.7 12.2 0.00 0.00 0.00 83 1016.7
20260507000552 63 298 7.8 12.2 0.00 0.00 0.00 83 1016.7
20260507000052 63 303 8.7 11.3 0.00 0.00 0.00 84 1016.6
20260506235551 63 292 8.7 11.3 0.00 0.00 0.00 84 1016.6
20260506235047 63 329 7.8 11.3 0.00 0.00 0.00 84 1016.6
20260506234556 63 284 8.7 11.3 0.00 0.00 0.00 83 1016.7
20260506234051 63 292 7.8 12.2 0.00 0.00 0.00 83 1016.7
20260506233548 63 275 8.7 12.2 0.00 0.00 0.00 83 1016.7
20260506233055 63 296 9.6 12.2 0.00 0.00 0.00 82 1016.7
20260506232547 63 285 7.0 11.3 0.00 0.00 0.00 83 1016.7
20260506232048 63 290 7.0 12.2 0.00 0.00 0.00 83 1016.7
20260506231605 63 294 8.7 13.0 0.00 0.00 0.00 83 1016.7
20260506231048 63 297 8.7 13.0 0.00 0.00 0.00 82 1016.8
20260506230547 63 288 7.8 13.0 0.00 0.00 0.00 82 1016.8
20260506230106 63 290 8.7 11.3 0.00 0.00 0.00 83 1016.8
20260506225552 63 296 8.7 11.3 0.00 0.00 0.00 83 1016.8
20260506225047 63 290 8.7 11.3 0.00 0.00 0.00 82 1016.8
20260506224552 63 269 8.7 11.3 0.00 0.00 0.00 81 1017.0
20260506224047 63 279 5.2 11.3 0.00 0.00 0.00 81 1017.0
20260506223551 63 312 7.8 11.3 0.00 0.00 0.00 82 1017.0
20260506223055 63 313 7.0 10.4 0.00 0.00 0.00 82 1017.1
20260506222547 63 290 7.0 10.4 0.00 0.00 0.00 82 1017.1
20260506222048 63 296 7.8 11.3 0.00 0.00 0.00 81 1017.3
20260506221605 63 267 7.0 12.2 0.00 0.00 0.00 81 1017.3
20260506221048 63 261 7.8 12.2 0.00 0.00 0.00 80 1017.3
20260506220548 63 300 7.8 10.4 0.00 0.00 0.00 81 1017.4
20260506220055 63 286 6.1 11.3 0.00 0.00 0.00 81 1017.4
20260506215548 63 304 7.8 11.3 0.00 0.00 0.00 80 1017.5
20260506215051 63 286 7.8 11.3 0.00 0.00 0.00 80 1017.5
20260506214555 63 299 7.0 11.3 0.00 0.00 0.00 79 1017.4
20260506214046 63 271 5.2 11.3 0.00 0.00 0.00 80 1017.5
20260506213546 63 279 7.0 11.3 0.00 0.00 0.00 80 1017.5
20260506213050 63 263 6.1 11.3 0.00 0.00 0.00 80 1017.6
20260506212548 63 303 7.0 12.2 0.00 0.00 0.00 80 1017.6
20260506212048 63 284 7.8 12.2 0.00 0.00 0.00 80 1017.6
20260506211554 63 250 7.8 12.2 0.00 0.00 0.00 81 1017.7
20260506211048 63 269 7.8 13.9 0.00 0.00 0.00 81 1017.7
20260506210547 63 271 7.8 13.9 0.00 0.00 0.00 81 1017.7
20260506210058 62 263 10.4 13.9 0.00 0.00 0.00 80 1017.7
20260506205551 62 291 9.6 13.0 0.00 0.00 0.00 80 1017.7
20260506205048 63 271 7.8 13.9 0.00 0.00 0.00 80 1017.7
20260506204556 63 273 7.0 13.9 0.00 0.00 0.00 80 1017.7
20260506204049 63 277 9.6 13.9 0.00 0.00 0.00 80 1017.8
20260506203548 63 265 7.8 13.9 0.00 0.00 0.00 80 1017.8
20260506203116 63 278 8.7 13.9 0.00 0.00 0.00 80 1017.8
20260506202548 63 316 7.0 13.9 0.00 0.00 0.00 80 1017.8
20260506202047 63 265 8.7 13.9 0.00 0.00 0.00 81 1017.8
20260506201553 63 274 9.6 13.0 0.00 0.00 0.00 80 1017.9
20260506201049 62 262 8.7 13.0 0.00 0.00 0.00 79 1018.0
20260506200554 63 263 7.0 12.2 0.00 0.00 0.00 80 1018.1
20260506200058 62 309 7.0 12.2 0.00 0.00 0.00 79 1018.1
20260506195547 63 269 7.0 12.2 0.00 0.00 0.00 79 1018.1
20260506195047 62 282 7.8 12.2 0.00 0.00 0.00 79 1018.1
20260506194600 62 259 7.0 12.2 0.00 0.00 0.00 78 1018.2
20260506194046 62 296 6.1 12.2 0.00 0.00 0.00 79 1018.3
20260506193547 62 320 7.8 12.2 0.00 0.00 0.00 80 1018.4
20260506193106 62 270 7.0 12.2 0.00 0.00 0.00 79 1018.2
20260506192547 63 275 7.0 9.6 0.00 0.00 0.00 79 1018.3
20260506192048 63 294 5.2 9.6 0.00 0.00 0.00 79 1018.4
20260506191559 63 286 4.3 8.7 0.00 0.00 0.00 78 1018.4
20260506191048 62 307 5.2 11.3 0.00 0.00 0.00 78 1018.5
20260506190547 62 294 4.3 11.3 0.00 0.00 0.00 79 1018.4
20260506190058 62 272 6.1 9.6 0.00 0.00 0.00 79 1018.5
20260506185547 62 288 7.0 9.6 0.00 0.00 0.00 78 1018.6
20260506185047 62 285 4.3 7.8 0.00 0.00 0.00 78 1018.6
20260506184600 62 274 4.3 7.8 0.00 0.00 0.00 77 1018.6
20260506184047 63 281 4.3 7.8 0.00 0.00 0.00 78 1018.6
20260506183549 63 273 5.2 7.8 0.00 0.00 0.00 77 1018.6
20260506183105 63 262 2.6 7.0 0.00 0.00 0.00 76 1018.5
20260506182547 63 261 3.5 7.0 0.00 0.00 0.00 76 1018.6
20260506182048 63 272 2.6 5.2 0.00 0.00 0.00 75 1018.7
20260506181558 63 263 1.7 6.1 0.00 0.00 0.00 77 1018.7
20260506181048 63 293 1.7 6.1 0.00 0.00 0.00 77 1018.7
20260506180550 62 261 3.5 6.1 0.00 0.00 0.00 76 1018.7
20260506180053 62 272 3.5 6.1 0.00 0.00 0.00 76 1018.8
20260506175549 63 276 1.7 6.1 0.00 0.00 0.00 77 1018.7
20260506175052 62 275 2.6 6.1 0.00 0.00 0.00 78 1018.7
20260506174552 62 274 3.5 6.1 0.00 0.00 0.00 77 1018.8
20260506174048 62 261 3.5 6.1 0.00 0.00 0.00 77 1018.8
20260506173547 62 264 2.6 6.1 0.00 0.00 0.00 77 1018.8
20260506173106 62 265 3.5 5.2 0.00 0.00 0.00 76 1018.8
20260506172549 62 267 2.6 5.2 0.00 0.00 0.00 75 1019.0
20260506172048 63 265 0.9 6.1 0.00 0.00 0.00 76 1019.0
20260506171551 62 273 2.6 6.1 0.00 0.00 0.00 76 1019.0
20260506171047 63 268 3.5 6.1 0.00 0.00 0.00 74 1019.0
20260506170549 63 235 0.9 3.5 0.00 0.00 0.00 76 1018.9
20260506170104 63 216 1.7 4.3 0.00 0.00 0.00 76 1018.9
20260506165549 63 232 0.9 4.3 0.00 0.00 0.00 76 1018.8
20260506165048 63 225 2.6 4.3 0.00 0.00 0.00 75 1018.9
20260506164611 63 225 1.7 3.5 0.00 0.00 0.00 75 1018.8
20260506164048 63 278 0.0 3.5 0.00 0.00 0.00 77 1018.8
20260506163548 62 279 0.9 3.5 0.00 0.00 0.00 77 1018.9
20260506163101 62 0 0.9 3.5 0.00 0.00 0.00 77 1018.9
20260506162549 61 274 1.7 3.5 0.00 0.00 0.00 76 1018.9
20260506162048 61 283 0.0 2.6 0.00 0.00 0.00 76 1018.9
20260506161557 61 283 0.9 2.6 0.00 0.00 0.00 76 1018.8
20260506161050 61 283 0.9 2.6 0.00 0.00 0.00 76 1018.8
20260506160547 61 283 0.9 2.6 0.00 0.00 0.00 76 1018.8
20260506160111 61 283 0.0 2.6 0.00 0.00 0.00 76 1018.8
20260506155550 61 0 0.9 3.5 0.00 0.00 0.00 75 1018.8
20260506155048 62 283 1.7 3.5 0.00 0.00 0.00 74 1018.7
20260506154556 62 267 1.7 3.5 0.00 0.00 0.00 72 1018.7
20260506154049 63 100 0.9 2.6 0.00 0.00 0.00 71 1018.7
20260506153553 63 0 0.0 2.6 0.00 0.00 0.00 73 1018.6
20260506153050 63 0 0.0 2.6 0.00 0.00 0.00 72 1018.8
20260506152549 63 0 0.0 5.2 0.00 0.00 0.00 74 1018.8
20260506152050 62 0 0.9 5.2 0.00 0.00 0.00 74 1018.8
20260506151556 62 120 0.9 5.2 0.00 0.00 0.00 74 1018.7
20260506151048 62 79 1.7 5.2 0.00 0.00 0.00 74 1018.7
20260506150549 62 0 0.9 5.2 0.00 0.00 0.00 75 1018.7
20260506145549 61 84 1.7 7.0 0.00 0.01 0.00 76 1018.7
20260506145050 61 116 3.5 7.0 0.00 0.01 0.00 76 1018.7
20260506144553 60 117 3.5 7.0 0.00 0.01 0.00 76 1018.7
20260506144048 60 90 2.6 7.0 0.00 0.01 0.00 77 1018.7
20260506143549 60 88 3.5 7.0 0.00 0.01 0.00 77 1018.6
20260506143053 60 78 3.5 7.0 0.00 0.01 0.00 77 1018.6
20260506142550 59 111 2.6 6.1 0.00 0.01 0.00 78 1018.6
20260506142048 59 96 2.6 6.1 0.00 0.01 0.00 79 1018.6
20260506141555 58 80 2.6 6.1 0.00 0.01 0.00 79 1018.6
20260506141049 58 77 2.6 6.1 0.00 0.01 0.00 79 1018.5